Location: Bramevaque
(42.9773°N, 0.5757°E)
Time: 20:43:00
(UTC+00:00)

Meteor 2-20 Rocket - Pass Details

Date: 15 May 2026
Orbit: 872 x 1023 km, 82.5° (Epoch: 8 June)

Event Time Altitude Azimuth Distance (km) Brightness Sun altitude
Exits shadow 23:54:12 77° 100° (E) 903 4.2 -28.0°
Maximum altitude 23:54:14 77° 96° (E) 903 4.2 -28.0°
Drops below altitude 10° 23:59:57 10° 11° (N) 2,530 7.6 -28.0°
Sets 00:02:23 0° 10° (N) 3,473 8.6 -27.9°
